| time (UTC) | temp F | wind direction | speed MPH | gust MPH | rain 1hr in | rain 24hr in | rain mn in | humidity % | barometer mb |
| 20260904205534 | 85 | 349 | 0.0 | 1.0 | 0.00 | 0.18 | 0.18 | 76 | 1004.7 |
| 20260904205030 | 86 | 56 | 0.0 | 1.0 | 0.00 | 0.18 | 0.18 | 75 | 1004.5 |
| 20260904204532 | 86 | 53 | 0.0 | 1.0 | 0.00 | 0.18 | 0.18 | 75 | 1004.7 |
| 20260904204031 | 86 | 54 | 0.0 | 1.0 | 0.00 | 0.18 | 0.18 | 74 | 1004.9 |
| 20260904203529 | 86 | 54 | 0.0 | 3.0 | 0.00 | 0.18 | 0.18 | 74 | 1005.0 |
| 20260904203029 | 86 | 54 | 0.0 | 3.0 | 0.00 | 0.18 | 0.18 | 74 | 1004.9 |
| 20260904202530 | 87 | 68 | 0.0 | 3.0 | 0.00 | 0.18 | 0.18 | 73 | 1004.8 |
| 20260904202031 | 87 | 353 | 1.0 | 3.0 | 0.00 | 0.18 | 0.18 | 72 | 1004.8 |
| 20260904201529 | 88 | 32 | 0.0 | 5.0 | 0.00 | 0.18 | 0.18 | 71 | 1004.9 |
| 20260904201030 | 89 | 50 | 0.0 | 3.0 | 0.00 | 0.18 | 0.18 | 70 | 1004.8 |
| 20260904200528 | 90 | 23 | 0.0 | 1.0 | 0.00 | 0.18 | 0.18 | 68 | 1004.2 |
| 20260904200029 | 90 | 233 | 0.0 | 1.0 | 0.00 | 0.18 | 0.18 | 68 | 1003.9 |
| 20260904195528 | 90 | 233 | 0.0 | 1.0 | 0.00 | 0.18 | 0.18 | 66 | 1004.2 |
| 20260904195026 | 90 | 272 | 0.0 | 4.0 | 0.00 | 0.18 | 0.18 | 67 | 1004.5 |
| 20260904194526 | 90 | 269 | 0.0 | 4.0 | 0.00 | 0.18 | 0.18 | 66 | 1004.9 |
| 20260904194025 | 91 | 292 | 1.0 | 3.0 | 0.00 | 0.18 | 0.18 | 66 | 1005.1 |
| 20260904193525 | 91 | 288 | 0.0 | 2.0 | 0.00 | 0.18 | 0.18 | 65 | 1005.1 |
| 20260904193026 | 92 | 287 | 1.0 | 2.0 | 0.00 | 0.18 | 0.18 | 63 | 1005.0 |
| 20260904192524 | 92 | 296 | 0.0 | 3.0 | 0.00 | 0.18 | 0.18 | 63 | 1004.9 |
| 20260904192024 | 93 | 309 | 1.0 | 3.0 | 0.00 | 0.18 | 0.18 | 62 | 1005.0 |
| 20260904191524 | 93 | 337 | 0.0 | 5.0 | 0.00 | 0.18 | 0.18 | 62 | 1005.0 |
| 20260904191024 | 94 | 285 | 1.0 | 5.0 | 0.00 | 0.18 | 0.18 | 60 | 1004.9 |
| 20260904190523 | 94 | 224 | 0.0 | 3.0 | 0.00 | 0.18 | 0.18 | 63 | 1004.9 |
| 20260904190022 | 93 | 233 | 1.0 | 3.0 | 0.00 | 0.18 | 0.18 | 62 | 1005.0 |
| 20260904185521 | 93 | 253 | 0.0 | 4.0 | 0.00 | 0.18 | 0.18 | 63 | 1005.1 |
| 20260904185020 | 93 | 281 | 1.0 | 4.0 | 0.00 | 0.18 | 0.18 | 62 | 1005.2 |
| 20260904184519 | 94 | 294 | 0.0 | 3.0 | 0.00 | 0.18 | 0.18 | 62 | 1005.3 |
| 20260904184018 | 93 | 248 | 0.0 | 5.0 | 0.00 | 0.18 | 0.18 | 63 | 1005.4 |
| 20260904183517 | 92 | 205 | 1.0 | 5.0 | 0.00 | 0.18 | 0.18 | 63 | 1005.5 |
| 20260904183015 | 92 | 248 | 1.0 | 4.0 | 0.00 | 0.18 | 0.18 | 64 | 1005.6 |
| 20260904182517 | 92 | 61 | 1.0 | 5.0 | 0.00 | 0.18 | 0.18 | 63 | 1005.7 |
| 20260904182019 | 91 | 33 | 0.0 | 8.0 | 0.00 | 0.18 | 0.18 | 63 | 1005.7 |
| 20260904181538 | 92 | 306 | 2.0 | 7.0 | 0.00 | 0.18 | 0.18 | 63 | 1005.7 |
| 20260904181014 | 92 | 77 | 0.0 | 6.0 | 0.00 | 0.18 | 0.18 | 63 | 1005.8 |
| 20260904180515 | 91 | 165 | 0.0 | 6.0 | 0.00 | 0.18 | 0.18 | 64 | 1005.9 |
| 20260904180012 | 90 | 226 | 0.0 | 9.0 | 0.00 | 0.18 | 0.18 | 64 | 1006.0 |
| 20260904175512 | 90 | 238 | 2.0 | 9.0 | 0.00 | 0.18 | 0.18 | 65 | 1006.0 |
| 20260904175012 | 90 | 9 | 3.0 | 7.0 | 0.00 | 0.18 | 0.18 | 64 | 1006.1 |
| 20260904174512 | 90 | 23 | 2.0 | 12.0 | 0.00 | 0.18 | 0.18 | 64 | 1006.1 |
| 20260904174012 | 90 | 324 | 2.0 | 12.0 | 0.00 | 0.18 | 0.18 | 64 | 1006.1 |
| 20260904173510 | 91 | 359 | 3.0 | 6.0 | 0.00 | 0.18 | 0.18 | 63 | 1006.2 |
| 20260904173017 | 90 | 6 | 0.0 | 8.0 | 0.00 | 0.18 | 0.18 | 65 | 1006.2 |
| 20260904172509 | 89 | 256 | 1.0 | 8.0 | 0.00 | 0.18 | 0.18 | 65 | 1006.4 |
| 20260904172009 | 90 | 319 | 3.0 | 6.0 | 0.00 | 0.18 | 0.18 | 64 | 1006.4 |
| 20260904171508 | 90 | 28 | 2.0 | 6.0 | 0.00 | 0.18 | 0.18 | 66 | 1006.3 |
| 20260904171008 | 89 | 318 | 0.0 | 8.0 | 0.00 | 0.18 | 0.18 | 66 | 1006.4 |
| 20260904170507 | 90 | 302 | 3.0 | 8.0 | 0.00 | 0.18 | 0.18 | 66 | 1006.4 |
| 20260904170107 | 89 | 70 | 0.0 | 10.0 | 0.00 | 0.18 | 0.18 | 66 | 1006.4 |
| 20260904165610 | 89 | 54 | 3.0 | 10.0 | 0.00 | 0.18 | 0.18 | 67 | 1006.4 |
| 20260904165006 | 89 | 300 | 1.0 | 5.0 | 0.00 | 0.18 | 0.18 | 66 | 1006.6 |
| 20260904164505 | 89 | 323 | 0.0 | 8.0 | 0.00 | 0.18 | 0.18 | 68 | 1006.6 |
| 20260904164003 | 88 | 91 | 0.0 | 8.0 | 0.00 | 0.18 | 0.18 | 67 | 1006.6 |
| 20260904163502 | 89 | 335 | 3.0 | 7.0 | 0.00 | 0.18 | 0.18 | 67 | 1006.7 |
| 20260904163104 | 88 | 48 | 1.0 | 5.0 | 0.00 | 0.18 | 0.18 | 68 | 1006.8 |
| 20260904162501 | 88 | 134 | 0.0 | 6.0 | 0.00 | 0.18 | 0.18 | 68 | 1006.8 |
| 20260904162001 | 87 | 4 | 0.0 | 6.0 | 0.00 | 0.18 | 0.18 | 69 | 1006.9 |
| 20260904161600 | 87 | 342 | 2.0 | 6.0 | 0.00 | 0.18 | 0.18 | 67 | 1006.9 |
| 20260904161102 | 88 | 354 | 2.0 | 7.0 | 0.00 | 0.18 | 0.18 | 67 | 1007.0 |
| 20260904160600 | 88 | 60 | 2.0 | 7.0 | 0.00 | 0.18 | 0.18 | 67 | 1006.9 |
| 20260904155559 | 87 | 341 | 2.0 | 9.0 | 0.00 | 0.18 | 0.18 | 67 | 1006.9 |
| 20260904155058 | 87 | 15 | 3.0 | 9.0 | 0.00 | 0.18 | 0.18 | 68 | 1006.9 |
| 20260904154557 | 87 | 335 | 0.0 | 6.0 | 0.00 | 0.18 | 0.18 | 71 | 1006.9 |
| 20260904154056 | 87 | 301 | 3.0 | 6.0 | 0.00 | 0.18 | 0.18 | 69 | 1006.9 |
| 20260904153555 | 86 | 18 | 2.0 | 11.0 | 0.00 | 0.18 | 0.18 | 70 | 1006.9 |
| 20260904153056 | 86 | 23 | 5.0 | 11.0 | 0.00 | 0.18 | 0.18 | 70 | 1007.0 |
| 20260904152554 | 86 | 25 | 2.0 | 6.0 | 0.00 | 0.18 | 0.18 | 71 | 1007.0 |
| 20260904152057 | 86 | 58 | 2.0 | 6.0 | 0.00 | 0.18 | 0.18 | 72 | 1006.9 |
| 20260904151552 | 85 | 288 | 0.0 | 6.0 | 0.00 | 0.18 | 0.18 | 73 | 1007.0 |
| 20260904151050 | 85 | 281 | 2.0 | 6.0 | 0.00 | 0.18 | 0.18 | 74 | 1007.1 |
| 20260904150550 | 84 | 329 | 2.0 | 6.0 | 0.00 | 0.18 | 0.18 | 73 | 1007.1 |
| 20260904150050 | 84 | 309 | 2.0 | 7.0 | 0.00 | 0.18 | 0.18 | 73 | 1007.1 |
| 20260904145549 | 84 | 1 | 2.0 | 7.0 | 0.00 | 0.18 | 0.18 | 75 | 1007.2 |
| 20260904145047 | 84 | 282 | 1.0 | 3.0 | 0.00 | 0.18 | 0.18 | 75 | 1007.2 |
| 20260904144547 | 83 | 60 | 0.0 | 4.0 | 0.00 | 0.18 | 0.18 | 77 | 1007.3 |
| 20260904144045 | 82 | 233 | 1.0 | 4.0 | 0.00 | 0.18 | 0.18 | 78 | 1007.5 |
| 20260904143548 | 82 | 5 | 1.0 | 5.0 | 0.00 | 0.18 | 0.18 | 79 | 1007.5 |
| 20260904143049 | 82 | 330 | 1.0 | 5.0 | 0.00 | 0.18 | 0.18 | 78 | 1007.4 |
| 20260904142542 | 82 | 340 | 0.0 | 3.0 | 0.00 | 0.18 | 0.18 | 79 | 1007.3 |
| 20260904142041 | 81 | 24 | 0.0 | 4.0 | 0.00 | 0.18 | 0.18 | 82 | 1007.4 |
| 20260904141543 | 81 | 50 | 1.0 | 4.0 | 0.00 | 0.18 | 0.18 | 81 | 1007.4 |
| 20260904141042 | 80 | 291 | 0.0 | 3.0 | 0.00 | 0.18 | 0.18 | 81 | 1007.4 |
| 20260904140542 | 80 | 339 | 0.0 | 4.0 | 0.00 | 0.18 | 0.18 | 82 | 1007.4 |
| 20260904140046 | 80 | 62 | 0.0 | 5.0 | 0.00 | 0.18 | 0.18 | 83 | 1007.2 |
| 20260904135542 | 79 | 112 | 2.0 | 5.0 | 0.00 | 0.18 | 0.18 | 83 | 1007.3 |
| 20260904135044 | 79 | 359 | 0.0 | 5.0 | 0.00 | 0.18 | 0.18 | 82 | 1007.3 |
| 20260904134546 | 80 | 1 | 0.0 | 2.0 | 0.00 | 0.18 | 0.18 | 84 | 1007.2 |
| 20260904134045 | 79 | 271 | 0.0 | 3.0 | 0.00 | 0.18 | 0.18 | 85 | 1007.3 |
| 20260904133541 | 78 | 356 | 0.0 | 4.0 | 0.00 | 0.18 | 0.18 | 87 | 1007.5 |
| 20260904133041 | 77 | 356 | 0.0 | 4.0 | 0.00 | 0.18 | 0.18 | 87 | 1007.5 |
| 20260904132541 | 77 | 67 | 2.0 | 7.0 | 0.00 | 0.18 | 0.18 | 88 | 1007.5 |
| 20260904132041 | 76 | 91 | 1.0 | 7.0 | 0.00 | 0.18 | 0.18 | 88 | 1007.4 |
| 20260904131540 | 76 | 45 | 1.0 | 6.0 | 0.00 | 0.18 | 0.18 | 90 | 1007.4 |
| 20260904131040 | 76 | 193 | 2.0 | 7.0 | 0.00 | 0.18 | 0.18 | 91 | 1007.4 |
| 20260904130540 | 75 | 352 | 3.0 | 7.0 | 0.00 | 0.18 | 0.18 | 91 | 1007.4 |
| 20260904130040 | 75 | 353 | 3.0 | 7.0 | 0.00 | 0.18 | 0.18 | 91 | 1007.4 |
| 20260904125540 | 75 | 76 | 2.0 | 6.0 | 0.00 | 0.18 | 0.18 | 92 | 1007.5 |
| 20260904125039 | 75 | 308 | 1.0 | 6.0 | 0.00 | 0.18 | 0.18 | 92 | 1007.5 |
| 20260904124539 | 75 | 355 | 2.0 | 7.0 | 0.00 | 0.18 | 0.18 | 93 | 1007.2 |
| 20260904124040 | 74 | 321 | 2.0 | 7.0 | 0.00 | 0.18 | 0.18 | 93 | 1007.2 |
| 20260904123538 | 74 | 44 | 2.0 | 6.0 | 0.00 | 0.18 | 0.18 | 94 | 1007.1 |
| 20260904123038 | 74 | 30 | 1.0 | 6.0 | 0.00 | 0.18 | 0.18 | 94 | 1007.0 |
| 20260904122538 | 74 | 72 | 1.0 | 6.0 | 0.00 | 0.18 | 0.18 | 95 | 1006.9 |
| 20260904122038 | 74 | 100 | 1.0 | 6.0 | 0.00 | 0.18 | 0.18 | 96 | 1007.0 |
| 20260904121538 | 73 | 19 | 0.0 | 2.0 | 0.00 | 0.18 | 0.18 | 96 | 1006.8 |
| 20260904121042 | 73 | 245 | 0.0 | 1.0 | 0.00 | 0.18 | 0.18 | 95 | 1006.7 |
| 20260904120538 | 73 | 219 | 0.0 | 1.0 | 0.00 | 0.18 | 0.18 | 96 | 1006.8 |
| 20260904120046 | 72 | 219 | 0.0 | 1.0 | 0.00 | 0.18 | 0.18 | 96 | 1006.7 |
| 20260904115537 | 72 | 219 | 0.0 | 1.0 | 0.00 | 0.18 | 0.18 | 96 | 1006.6 |
| 20260904115038 | 72 | 219 | 0.0 | 0.0 | 0.00 | 0.18 | 0.18 | 96 | 1006.6 |
| 20260904114537 | 71 | 219 | 0.0 | 1.0 | 0.00 | 0.18 | 0.18 | 96 | 1006.6 |
| 20260904114037 | 71 | 219 | 0.0 | 1.0 | 0.00 | 0.18 | 0.18 | 96 | 1006.8 |
| 20260904113537 | 71 | 219 | 0.0 | 1.0 | 0.00 | 0.18 | 0.18 | 96 | 1006.6 |
| 20260904113042 | 71 | 219 | 0.0 | 1.0 | 0.00 | 0.18 | 0.18 | 96 | 1006.7 |
| 20260904112536 | 71 | 219 | 0.0 | 1.0 | 0.00 | 0.18 | 0.18 | 96 | 1006.7 |
| 20260904112035 | 70 | 219 | 0.0 | 1.0 | 0.00 | 0.18 | 0.18 | 96 | 1006.6 |
| 20260904111536 | 70 | 219 | 0.0 | 1.0 | 0.00 | 0.18 | 0.18 | 95 | 1006.7 |
| 20260904111040 | 70 | 219 | 0.0 | 1.0 | 0.00 | 0.18 | 0.18 | 95 | 1006.5 |
| 20260904110535 | 70 | 219 | 0.0 | 0.0 | 0.00 | 0.18 | 0.18 | 95 | 1006.5 |
| 20260904110034 | 70 | 219 | 0.0 | 1.0 | 0.00 | 0.18 | 0.18 | 95 | 1006.5 |
| 20260904105536 | 70 | 219 | 0.0 | 1.0 | 0.00 | 0.18 | 0.18 | 95 | 1006.4 |
| 20260904105034 | 70 | 219 | 0.0 | 0.0 | 0.00 | 0.18 | 0.18 | 95 | 1006.3 |
| 20260904104548 | 70 | 219 | 0.0 | 0.0 | 0.00 | 0.18 | 0.18 | 95 | 1006.4 |
| 20260904104036 | 70 | 219 | 0.0 | 1.0 | 0.00 | 0.18 | 0.18 | 95 | 1006.4 |
| 20260904103534 | 70 | 219 | 0.0 | 1.0 | 0.00 | 0.18 | 0.18 | 95 | 1006.4 |
| 20260904103032 | 70 | 219 | 0.0 | 0.0 | 0.00 | 0.18 | 0.18 | 95 | 1006.2 |
| 20260904102532 | 70 | 219 | 0.0 | 1.0 | 0.00 | 0.18 | 0.18 | 95 | 1006.3 |
| 20260904102035 | 70 | 219 | 0.0 | 0.0 | 0.00 | 0.18 | 0.18 | 95 | 1006.2 |
| 20260904101531 | 70 | 219 | 0.0 | 0.0 | 0.00 | 0.18 | 0.18 | 95 | 1006.1 |
| 20260904101032 | 70 | 219 | 0.0 | 0.0 | 0.00 | 0.18 | 0.18 | 95 | 1006.1 |
| 20260904100530 | 70 | 219 | 0.0 | 1.0 | 0.00 | 0.18 | 0.18 | 95 | 1006.1 |
| 20260904100033 | 70 | 219 | 0.0 | 1.0 | 0.00 | 0.18 | 0.18 | 95 | 1006.0 |
| 20260904095530 | 70 | 219 | 0.0 | 1.0 | 0.00 | 0.18 | 0.18 | 95 | 1005.9 |
| 20260904095030 | 70 | 220 | 0.0 | 0.0 | 0.00 | 0.18 | 0.18 | 95 | 1006.1 |
| 20260904094533 | 70 | 220 | 0.0 | 1.0 | 0.00 | 0.18 | 0.18 | 95 | 1005.9 |
| 20260904094029 | 70 | 220 | 0.0 | 2.0 | 0.00 | 0.18 | 0.18 | 95 | 1006.0 |
| 20260904093528 | 70 | 219 | 0.0 | 2.0 | 0.00 | 0.18 | 0.18 | 95 | 1006.0 |
| 20260904093028 | 70 | 233 | 0.0 | 0.0 | 0.00 | 0.18 | 0.18 | 95 | 1006.1 |
| 20260904092527 | 70 | 233 | 0.0 | 1.0 | 0.00 | 0.18 | 0.18 | 95 | 1006.1 |
| 20260904092027 | 70 | 233 | 0.0 | 1.0 | 0.00 | 0.18 | 0.18 | 95 | 1006.1 |
| 20260904091527 | 70 | 233 | 0.0 | 1.0 | 0.00 | 0.18 | 0.18 | 95 | 1006.1 |
| 20260904091127 | 70 | 233 | 0.0 | 1.0 | 0.00 | 0.18 | 0.18 | 95 | 1006.2 |
| 20260904090526 | 70 | 233 | 0.0 | 1.0 | 0.00 | 0.18 | 0.18 | 95 | 1006.3 |
| 20260904090025 | 70 | 213 | 0.0 | 1.0 | 0.00 | 0.18 | 0.18 | 95 | 1006.3 |
| 20260904085528 | 70 | 214 | 0.0 | 3.0 | 0.00 | 0.18 | 0.18 | 95 | 1006.3 |
| 20260904085025 | 70 | 214 | 0.0 | 4.0 | 0.00 | 0.18 | 0.18 | 95 | 1006.3 |
| 20260904084532 | 70 | 214 | 0.0 | 4.0 | 0.00 | 0.18 | 0.18 | 95 | 1006.2 |
| 20260904084024 | 71 | 202 | 0.0 | 2.0 | 0.00 | 0.18 | 0.18 | 95 | 1006.4 |
| 20260904083526 | 71 | 210 | 0.0 | 0.0 | 0.00 | 0.18 | 0.18 | 95 | 1006.2 |
| 20260904083023 | 71 | 210 | 0.0 | 0.0 | 0.00 | 0.18 | 0.18 | 95 | 1006.3 |
| 20260904082523 | 71 | 210 | 0.0 | 0.0 | 0.00 | 0.18 | 0.18 | 95 | 1006.4 |
| 20260904082023 | 71 | 233 | 0.0 | 0.0 | 0.00 | 0.18 | 0.18 | 94 | 1006.4 |
| 20260904081522 | 71 | 233 | 0.0 | 0.0 | 0.00 | 0.18 | 0.18 | 94 | 1006.5 |
| 20260904081022 | 71 | 233 | 0.0 | 1.0 | 0.00 | 0.18 | 0.18 | 95 | 1006.5 |
| 20260904080522 | 71 | 233 | 0.0 | 1.0 | 0.00 | 0.18 | 0.18 | 94 | 1006.4 |
| 20260904080030 | 71 | 234 | 0.0 | 0.0 | 0.00 | 0.18 | 0.18 | 95 | 1006.6 |
| 20260904075521 | 71 | 234 | 0.0 | 0.0 | 0.00 | 0.18 | 0.18 | 94 | 1006.3 |
| 20260904075021 | 71 | 234 | 0.0 | 0.0 | 0.00 | 0.18 | 0.18 | 94 | 1006.2 |
| 20260904074521 | 71 | 234 | 0.0 | 0.0 | 0.00 | 0.18 | 0.18 | 94 | 1006.1 |
| 20260904074022 | 71 | 234 | 0.0 | 0.0 | 0.00 | 0.18 | 0.18 | 94 | 1006.1 |
| 20260904073520 | 71 | 234 | 0.0 | 1.0 | 0.00 | 0.18 | 0.18 | 94 | 1006.0 |
| 20260904073020 | 71 | 234 | 0.0 | 1.0 | 0.00 | 0.18 | 0.18 | 94 | 1005.9 |
| 20260904072519 | 71 | 234 | 0.0 | 0.0 | 0.00 | 0.18 | 0.18 | 94 | 1005.9 |
| 20260904072019 | 71 | 234 | 0.0 | 1.0 | 0.00 | 0.18 | 0.18 | 94 | 1005.9 |
| 20260904071518 | 71 | 233 | 0.0 | 1.0 | 0.00 | 0.18 | 0.18 | 94 | 1005.9 |
| 20260904071019 | 71 | 233 | 0.0 | 1.0 | 0.00 | 0.18 | 0.18 | 94 | 1005.8 |
| 20260904070519 | 71 | 233 | 0.0 | 1.0 | 0.00 | 0.18 | 0.18 | 94 | 1005.7 |
| 20260904070019 | 71 | 233 | 0.0 | 1.0 | 0.00 | 0.18 | 0.18 | 94 | 1005.6 |
| 20260904065517 | 71 | 233 | 0.0 | 3.0 | 0.00 | 0.18 | 0.18 | 94 | 1005.6 |
| 20260904065017 | 71 | 228 | 1.0 | 3.0 | 0.00 | 0.18 | 0.18 | 94 | 1005.6 |
| 20260904064524 | 71 | 200 | 0.0 | 1.0 | 0.00 | 0.18 | 0.18 | 94 | 1005.5 |
| 20260904064016 | 71 | 232 | 0.0 | 1.0 | 0.00 | 0.18 | 0.18 | 94 | 1005.6 |
| 20260904063517 | 71 | 236 | 0.0 | 1.0 | 0.00 | 0.18 | 0.18 | 93 | 1005.7 |
| 20260904063021 | 71 | 235 | 0.0 | 0.0 | 0.00 | 0.18 | 0.18 | 93 | 1005.6 |
| 20260904062515 | 71 | 235 | 0.0 | 1.0 | 0.00 | 0.18 | 0.18 | 93 | 1005.6 |
| 20260904062014 | 71 | 235 | 0.0 | 1.0 | 0.00 | 0.18 | 0.18 | 93 | 1005.7 |
| 20260904061514 | 71 | 139 | 0.0 | 0.0 | 0.01 | 0.18 | 0.18 | 93 | 1005.6 |
| 20260904061013 | 72 | 139 | 0.0 | 1.0 | 0.06 | 0.18 | 0.18 | 93 | 1006.0 |
| 20260904060514 | 72 | 139 | 0.0 | 2.0 | 0.12 | 0.18 | 0.18 | 93 | 1006.0 |
| 20260904060012 | 72 | 205 | 0.0 | 2.0 | 0.16 | 0.18 | 0.18 | 93 | 1006.0 |
| 20260904055511 | 72 | 222 | 0.0 | 6.0 | 0.16 | 0.18 | 0.18 | 93 | 1005.9 |
| 20260904055010 | 72 | 209 | 2.0 | 6.0 | 0.18 | 0.18 | 0.18 | 93 | 1006.5 |
| 20260904054512 | 72 | 179 | 2.0 | 6.0 | 0.18 | 0.18 | 0.18 | 93 | 1006.7 |
| 20260904054013 | 72 | 162 | 2.0 | 4.0 | 0.18 | 0.18 | 0.18 | 92 | 1006.7 |
| 20260904053513 | 72 | 220 | 2.0 | 4.0 | 0.18 | 0.18 | 0.18 | 92 | 1006.9 |
| 20260904053016 | 72 | 6 | 0.0 | 2.0 | 0.18 | 0.18 | 0.18 | 91 | 1006.8 |
| 20260904052511 | 72 | 232 | 0.0 | 6.0 | 0.18 | 0.18 | 0.18 | 91 | 1007.0 |
| 20260904052006 | 72 | 232 | 2.0 | 6.0 | 0.18 | 0.18 | 0.18 | 90 | 1007.8 |
| 20260904051505 | 73 | 158 | 0.0 | 8.0 | 0.17 | 0.17 | 0.17 | 90 | 1007.9 |
| 20260904051003 | 73 | 264 | 2.0 | 12.0 | 0.10 | 0.10 | 0.10 | 88 | 1008.3 |
| 20260904050502 | 74 | 37 | 2.0 | 17.0 | 0.03 | 0.03 | 0.03 | 87 | 1008.2 |
| 20260904045559 | 75 | 298 | 5.0 | 16.0 | 0.02 | 0.02 | 0.02 | 85 | 1008.7 |
| 20260904045058 | 77 | 321 | 6.0 | 16.0 | 0.00 | 0.00 | 0.00 | 83 | 1008.8 |
| 20260904044557 | 78 | 290 | 6.0 | 18.0 | 0.00 | 0.00 | 0.00 | 81 | 1008.6 |
| 20260904044056 | 79 | 293 | 5.0 | 27.0 | 0.00 | 0.00 | 0.00 | 81 | 1008.5 |
| 20260904043552 | 80 | 23 | 8.0 | 20.0 | 0.00 | 0.00 | 0.00 | 81 | 1007.9 |
| 20260904043104 | 81 | 329 | 9.0 | 19.0 | 0.00 | 0.00 | 0.00 | 85 | 1007.9 |
| 20260904042554 | 82 | 321 | 3.0 | 8.0 | 0.00 | 0.00 | 0.00 | 88 | 1007.5 |
| 20260904042049 | 82 | 321 | 1.0 | 3.0 | 0.00 | 0.00 | 0.00 | 88 | 1006.7 |
| 20260904041549 | 82 | 260 | 0.0 | 2.0 | 0.00 | 0.00 | 0.00 | 88 | 1006.6 |
| 20260904041048 | 81 | 288 | 0.0 | 2.0 | 0.00 | 0.00 | 0.00 | 89 | 1006.7 |
| 20260904040546 | 81 | 285 | 0.0 | 2.0 | 0.00 | 0.00 | 0.00 | 89 | 1006.7 |
| 20260904040045 | 81 | 284 | 0.0 | 3.0 | 0.00 | 0.00 | 0.00 | 89 | 1006.9 |
| 20260904035545 | 81 | 293 | 1.0 | 3.0 | 0.00 | 0.00 | 0.00 | 89 | 1006.6 |
| 20260904035043 | 81 | 302 | 0.0 | 2.0 | 0.00 | 0.00 | 0.00 | 89 | 1006.5 |
| 20260904034544 | 81 | 295 | 0.0 | 2.0 | 0.00 | 0.00 | 0.00 | 90 | 1006.4 |
| 20260904034045 | 81 | 307 | 0.0 | 2.0 | 0.00 | 0.00 | 0.00 | 90 | 1006.2 |
| 20260904033544 | 81 | 281 | 0.0 | 1.0 | 0.00 | 0.00 | 0.00 | 90 | 1006.1 |
| 20260904033043 | 81 | 292 | 0.0 | 1.0 | 0.00 | 0.00 | 0.00 | 90 | 1006.0 |
| 20260904032543 | 81 | 310 | 0.0 | 0.0 | 0.00 | 0.00 | 0.00 | 90 | 1005.9 |
| 20260904032043 | 81 | 310 | 0.0 | 1.0 | 0.00 | 0.00 | 0.00 | 90 | 1005.9 |
| 20260904031543 | 81 | 310 | 0.0 | 1.0 | 0.00 | 0.00 | 0.00 | 90 | 1005.9 |
| 20260904031042 | 81 | 59 | 0.0 | 1.0 | 0.00 | 0.00 | 0.00 | 90 | 1006.0 |
| 20260904030542 | 81 | 70 | 0.0 | 3.0 | 0.00 | 0.00 | 0.00 | 90 | 1006.1 |
| 20260904030042 | 81 | 7 | 0.0 | 3.0 | 0.00 | 0.00 | 0.00 | 89 | 1006.2 |
| 20260904025542 | 81 | 248 | 0.0 | 1.0 | 0.00 | 0.00 | 0.00 | 89 | 1006.2 |
| 20260904025043 | 81 | 239 | 0.0 | 0.0 | 0.00 | 0.00 | 0.00 | 89 | 1006.3 |
| 20260904024542 | 81 | 239 | 0.0 | 1.0 | 0.00 | 0.00 | 0.00 | 89 | 1006.1 |
| 20260904024041 | 81 | 239 | 0.0 | 1.0 | 0.00 | 0.00 | 0.00 | 89 | 1006.2 |
| 20260904023540 | 82 | 239 | 0.0 | 1.0 | 0.00 | 0.00 | 0.00 | 89 | 1006.3 |
| 20260904023041 | 82 | 239 | 0.0 | 1.0 | 0.00 | 0.00 | 0.00 | 89 | 1006.4 |
| 20260904022541 | 82 | 239 | 0.0 | 1.0 | 0.00 | 0.00 | 0.00 | 89 | 1006.4 |
| 20260904022041 | 82 | 239 | 0.0 | 1.0 | 0.00 | 0.00 | 0.00 | 89 | 1006.5 |
| 20260904021549 | 82 | 232 | 0.0 | 1.0 | 0.00 | 0.00 | 0.00 | 88 | 1006.3 |
| 20260904021041 | 82 | 235 | 0.0 | 1.0 | 0.00 | 0.00 | 0.00 | 88 | 1006.6 |
| 20260904020545 | 82 | 233 | 0.0 | 1.0 | 0.00 | 0.00 | 0.00 | 88 | 1006.6 |
| 20260904020041 | 82 | 207 | 0.0 | 1.0 | 0.00 | 0.00 | 0.00 | 88 | 1006.7 |
| 20260904015540 | 82 | 207 | 0.0 | 1.0 | 0.00 | 0.00 | 0.00 | 88 | 1006.7 |
| 20260904015041 | 82 | 205 | 0.0 | 2.0 | 0.00 | 0.00 | 0.00 | 87 | 1006.6 |
| 20260904014541 | 82 | 208 | 0.0 | 2.0 | 0.00 | 0.00 | 0.00 | 87 | 1006.5 |
| 20260904014041 | 82 | 200 | 0.0 | 2.0 | 0.00 | 0.00 | 0.00 | 87 | 1006.3 |
| 20260904013541 | 82 | 189 | 0.0 | 3.0 | 0.00 | 0.00 | 0.00 | 87 | 1006.5 |
| 20260904013039 | 82 | 200 | 0.0 | 3.0 | 0.00 | 0.00 | 0.00 | 87 | 1006.5 |
| 20260904012540 | 82 | 202 | 0.0 | 1.0 | 0.00 | 0.00 | 0.00 | 87 | 1006.5 |
| 20260904012039 | 82 | 201 | 0.0 | 1.0 | 0.00 | 0.00 | 0.00 | 87 | 1006.6 |
| 20260904011550 | 82 | 206 | 0.0 | 1.0 | 0.00 | 0.00 | 0.00 | 87 | 1006.7 |
| 20260904011039 | 82 | 198 | 0.0 | 1.0 | 0.00 | 0.00 | 0.00 | 87 | 1006.7 |
| 20260904010539 | 82 | 215 | 0.0 | 1.0 | 0.00 | 0.00 | 0.00 | 87 | 1006.7 |
| 20260904010039 | 82 | 216 | 0.0 | 0.0 | 0.00 | 0.00 | 0.00 | 86 | 1006.9 |
| 20260904005539 | 82 | 215 | 0.0 | 0.0 | 0.00 | 0.00 | 0.00 | 86 | 1007.1 |
| 20260904005039 | 82 | 216 | 0.0 | 0.0 | 0.00 | 0.00 | 0.00 | 86 | 1007.0 |
| 20260904004538 | 83 | 215 | 0.0 | 1.0 | 0.00 | 0.00 | 0.00 | 86 | 1007.2 |
| 20260904004038 | 83 | 216 | 0.0 | 1.0 | 0.00 | 0.00 | 0.00 | 85 | 1007.2 |
| 20260904003537 | 83 | 215 | 0.0 | 0.0 | 0.00 | 0.00 | 0.00 | 85 | 1007.3 |
| 20260904003038 | 83 | 215 | 0.0 | 0.0 | 0.00 | 0.00 | 0.00 | 84 | 1007.2 |
| 20260904002538 | 83 | 216 | 0.0 | 0.0 | 0.00 | 0.00 | 0.00 | 84 | 1007.0 |
| 20260904002038 | 83 | 216 | 0.0 | 0.0 | 0.00 | 0.00 | 0.00 | 84 | 1007.1 |
| 20260904001537 | 84 | 215 | 0.0 | 0.0 | 0.00 | 0.00 | 0.00 | 84 | 1007.1 |
| 20260904001037 | 84 | 216 | 0.0 | 0.0 | 0.00 | 0.00 | 0.00 | 83 | 1007.1 |
| 20260904000536 | 84 | 216 | 0.0 | 0.0 | 0.00 | 0.00 | 0.00 | 83 | 1007.0 |
| 20260904000039 | 84 | 215 | 0.0 | 1.0 | 0.00 | 0.00 | 0.00 | 82 | 1007.0 |
| 20260903235537 | 85 | 216 | 0.0 | 1.0 | 0.00 | 0.00 | 0.00 | 82 | 1006.9 |
| 20260903235037 | 85 | 216 | 0.0 | 1.0 | 0.00 | 0.00 | 0.00 | 81 | 1006.8 |
| 20260903234537 | 85 | 215 | 0.0 | 0.0 | 0.00 | 0.00 | 0.00 | 81 | 1006.5 |
| 20260903234036 | 85 | 231 | 0.0 | 0.0 | 0.00 | 0.00 | 0.00 | 80 | 1006.6 |
| 20260903233537 | 86 | 231 | 0.0 | 0.0 | 0.00 | 0.00 | 0.00 | 80 | 1006.7 |
| 20260903233035 | 86 | 231 | 0.0 | 0.0 | 0.00 | 0.00 | 0.00 | 79 | 1006.8 |
| 20260903232538 | 86 | 231 | 0.0 | 0.0 | 0.00 | 0.00 | 0.00 | 79 | 1006.7 |
| 20260903232035 | 87 | 231 | 0.0 | 0.0 | 0.00 | 0.00 | 0.00 | 78 | 1006.7 |
| 20260903231535 | 87 | 231 | 0.0 | 0.0 | 0.00 | 0.00 | 0.00 | 78 | 1006.6 |
| 20260903231034 | 87 | 231 | 0.0 | 1.0 | 0.00 | 0.00 | 0.00 | 77 | 1006.7 |
| 20260903230539 | 88 | 231 | 0.0 | 2.0 | 0.00 | 0.00 | 0.00 | 77 | 1006.5 |
| 20260903230038 | 88 | 231 | 0.0 | 4.0 | 0.00 | 0.00 | 0.00 | 76 | 1006.4 |
| 20260903225534 | 88 | 229 | 1.0 | 4.0 | 0.00 | 0.00 | 0.00 | 76 | 1006.4 |
| 20260903225034 | 88 | 182 | 1.0 | 3.0 | 0.00 | 0.00 | 0.00 | 75 | 1006.3 |
| 20260903224536 | 89 | 200 | 0.0 | 6.0 | 0.00 | 0.00 | 0.00 | 75 | 1006.4 |
| 20260903224034 | 89 | 245 | 2.0 | 6.0 | 0.00 | 0.00 | 0.00 | 74 | 1006.4 |
| 20260903223532 | 89 | 219 | 1.0 | 5.0 | 0.00 | 0.00 | 0.00 | 74 | 1006.4 |
| 20260903223031 | 89 | 233 | 1.0 | 4.0 | 0.00 | 0.00 | 0.00 | 74 | 1006.2 |
| 20260903222531 | 90 | 222 | 1.0 | 4.0 | 0.00 | 0.00 | 0.00 | 73 | 1006.1 |
| 20260903222031 | 90 | 235 | 2.0 | 5.0 | 0.00 | 0.00 | 0.00 | 72 | 1006.0 |
| 20260903221531 | 90 | 221 | 2.0 | 6.0 | 0.00 | 0.00 | 0.00 | 72 | 1006.1 |
| 20260903221030 | 90 | 203 | 2.0 | 6.0 | 0.00 | 0.00 | 0.00 | 72 | 1006.1 |
| 20260903220529 | 90 | 215 | 2.0 | 6.0 | 0.00 | 0.00 | 0.00 | 72 | 1006.0 |
| 20260903220050 | 90 | 234 | 3.0 | 6.0 | 0.00 | 0.00 | 0.00 | 71 | 1006.2 |
| 20260903215529 | 90 | 245 | 2.0 | 5.0 | 0.00 | 0.00 | 0.00 | 71 | 1006.1 |
| 20260903215027 | 90 | 197 | 2.0 | 6.0 | 0.00 | 0.00 | 0.00 | 71 | 1006.1 |
| 20260903214527 | 90 | 178 | 2.0 | 7.0 | 0.00 | 0.00 | 0.00 | 71 | 1006.2 |
| 20260903214027 | 90 | 216 | 2.0 | 5.0 | 0.00 | 0.00 | 0.00 | 71 | 1006.3 |
| 20260903213526 | 90 | 211 | 2.0 | 8.0 | 0.00 | 0.00 | 0.00 | 71 | 1006.2 |
| 20260903213027 | 90 | 238 | 4.0 | 8.0 | 0.00 | 0.00 | 0.00 | 71 | 1006.3 |
| 20260903212527 | 90 | 234 | 2.0 | 5.0 | 0.00 | 0.00 | 0.00 | 71 | 1006.3 |
| 20260903212024 | 90 | 236 | 3.0 | 7.0 | 0.00 | 0.00 | 0.00 | 72 | 1006.4 |
| 20260903211524 | 90 | 229 | 2.0 | 7.0 | 0.00 | 0.00 | 0.00 | 71 | 1006.4 |
| 20260903211022 | 90 | 260 | 2.0 | 7.0 | 0.00 | 0.00 | 0.00 | 71 | 1006.6 |
| 20260903210521 | 90 | 222 | 2.0 | 7.0 | 0.00 | 0.00 | 0.00 | 71 | 1006.6 |
| 20260903210026 | 90 | 49 | 2.0 | 6.0 | 0.00 | 0.00 | 0.00 | 70 | 1006.7 |